Weather History for Terre Haute, IN

Change the Weather History Date:

Friday, April 5, 2013

  Actual Average Record
Temperature  
Mean Temperature 47 °F 50 °F  
Max Temperature 63 °F 61 °F 74 °F (1985)
Min Temperature 30 °F 39 °F 23 °F (1992)
Degree Days  
Heating Degree Days 18 15  
Month to date heating degree days 122 80  
Since 1 July heating degree days 4927 4934  
Cooling Degree Days 0 0  
Month to date cooling degree days 0 0  
Year to date cooling degree days 0 1  
Moisture  
Dew Point 29 °F    
Average Humidity 57    
Maximum Humidity 85    
Minimum Humidity 29    
Precipitation  
Precipitation 0.00 in 0.09 in 0.85 in (1984)
Month to date precipitation 0.00 0.47  
Year to date precipitation 9.18 8.13  
Sea Level Pressure  
Sea Level Pressure 30.09 in    
Wind  
Wind Speed 5 mph (NNE)    
Max Wind Speed 16 mph    
Max Gust Speed 21 mph    
Visibility 10 miles    
Events      
T = Trace of Precipitation, MM = Missing Value Source: NWS Daily Summary

Daily Weather History Graph

Daily Weather History Graph

Search for Another Location

Airport:

Trip Planner

Search our weather history database for the weather conditions in past years. The results will help you decide how hot, cold, wet, or windy it might be!

Date:

Astronomy

Apr. 05, 2013 Rise Set
Actual Time 7:26 AM EDT 8:17 PM EDT
Civil Twilight 6:59 AM EDT 8:44 PM EDT
Nautical Twilight 6:27 AM EDT 9:17 PM EDT
Astronomical Twilight 5:53 AM EDT 9:50 PM EDT
Moon 4:32 AM EDT (4/5) 3:42 PM EDT (4/5)
Length of Visible Light 13h 45m
Length of Day
12h 50m
Waning Crescent, 24% of the Moon is Illuminated
Apr 5
Waning Crescent
Apr 10
New
Apr 18
First Quarter
Apr 25
Full
May 2
Last Quarter

Hourly Weather History & Observations

Time (EDT) Temp. Windchill Dew Point Humidity Pressure Visibility Wind Dir Wind Speed Gust Speed Precip Events Conditions
12:53 AM 35.1 °F - 28.9 °F 78% 30.03 in 10.0 mi Calm Calm - N/A   Clear
1:53 AM 36.0 °F - 26.1 °F 67% 30.03 in 10.0 mi Calm Calm - N/A   Clear
2:53 AM 35.1 °F - 27.0 °F 72% 30.03 in 10.0 mi Calm Calm - N/A   Clear
3:53 AM 33.1 °F - 27.0 °F 78% 30.03 in 10.0 mi Calm Calm - N/A   Clear
4:53 AM 33.1 °F - 27.0 °F 78% 30.04 in 10.0 mi Calm Calm - N/A   Clear
5:53 AM 30.0 °F - 26.1 °F 85% 30.05 in 10.0 mi Calm Calm - N/A   Clear
6:53 AM 30.9 °F - 26.1 °F 82% 30.06 in 10.0 mi Calm Calm - N/A   Clear
7:53 AM 33.1 °F - 26.1 °F 75% 30.09 in 10.0 mi Calm Calm - N/A   Clear
8:53 AM 42.1 °F 39.2 °F 30.0 °F 62% 30.11 in 10.0 mi North 4.6 mph - N/A   Clear
9:53 AM 46.9 °F - 30.9 °F 54% 30.12 in 10.0 mi NNE 8.1 mph - N/A   Clear
10:53 AM 52.0 °F - 32.0 °F 47% 30.12 in 10.0 mi NE 8.1 mph - N/A   Clear
11:53 AM 55.9 °F - 33.1 °F 42% 30.14 in 10.0 mi North 11.5 mph 16.1 mph N/A   Clear
12:53 PM 55.9 °F - 32.0 °F 40% 30.14 in 10.0 mi North 8.1 mph - N/A   Clear
1:53 PM 59.0 °F - 30.9 °F 35% 30.13 in 10.0 mi North 9.2 mph - N/A   Clear
2:53 PM 62.1 °F - 30.0 °F 30% 30.12 in 10.0 mi NNE 11.5 mph 16.1 mph N/A   Clear
3:53 PM 60.1 °F - 28.9 °F 31% 30.09 in 10.0 mi North 9.2 mph 17.3 mph N/A   Clear
4:53 PM 61.0 °F - 28.0 °F 29% 30.07 in 10.0 mi Variable 4.6 mph - N/A   Clear
5:53 PM 60.1 °F - 28.0 °F 30% 30.09 in 10.0 mi North 6.9 mph - N/A   Clear
6:53 PM 59.0 °F - 28.9 °F 32% 30.10 in 10.0 mi North 4.6 mph - N/A   Clear
7:53 PM 55.0 °F - 28.9 °F 37% 30.11 in 10.0 mi North 6.9 mph - N/A   Clear
8:53 PM 46.0 °F - 30.9 °F 56% 30.12 in 10.0 mi Calm Calm - N/A   Clear
9:53 PM 45.0 °F 42.6 °F 30.0 °F 56% 30.14 in 10.0 mi NNE 4.6 mph - N/A   Clear
10:53 PM 45.0 °F 42.6 °F 30.9 °F 58% 30.14 in 10.0 mi NE 4.6 mph - N/A   Clear
11:53 PM 42.1 °F 38.4 °F 30.0 °F 62% 30.14 in 10.0 mi NNE 5.8 mph - N/A   Clear